Location: Rounton
(54.4000°N, 1.3500°W)
Time: 13:08:26
(UTC+00:00)

Transit 4A - Pass Details

Date: 29 November 2021
Orbit: 864 x 981 km, 66.8° (Epoch: 18 January)

Event Time Altitude Azimuth Distance (km) Brightness Sun altitude
Rises 00:32:15 0° 285° (WNW) 3,518 - -56.3°
Reaches altitude 10° 00:35:10 10° 298° (WNW) 2,597 - -56.2°
Maximum altitude 00:40:10 26° 354° (N) 1,737 - -55.9°
Drops below altitude 10° 00:45:18 10° 50° (NE) 2,668 - -55.7°
Sets 00:48:21 0° 63° (ENE) 3,633 - -55.5°
